Regional Weather Roundup
Issued by NWS

Home | Current Version | Previous Version | Graphics & Text | Print | Product List | Glossary Off
Versions: 1 2 3 4 5 6 7 8 9 10 11 12 13 14 15 16 17 18 19 20 21 22 23 24 25 26 27 28 29 30 31 32 33 34 35 36 37 38 39 40 41 42 43 44 45 46 47 48 49 50

000
ASUS43 KMPX 020210
RWRMN
WEATHER ROUNDUP FOR MINNESOTA
NATIONAL WEATHER SERVICE TWIN CITIES/CHANHASSEN MN
900 PM CDT SUN MAY 01 2016


NOTE: "FAIR" INDICATES FEW OR NO CLOUDS BELOW 12,000 FEET WITH NO
SIGNIFICANT WEATHER AND/OR OBSTRUCTIONS TO VISIBILITY. N/A MEANS
CURRENT SKY AND/OR WEATHER CONDITIONS ARE NOT AVAILABLE.

MNZ060>063-068>070-020300-
   Twin Cities Metro

CITY           SKY/WX    TMP DP  RH WIND       PRES   REMARKS
TWIN CITIES    PTCLDY    57  32  38 N7        30.10S
ST PAUL        CLEAR     57  33  40 N5        30.11R
CRYSTAL        CLEAR     57  34  41 N7        30.10S
BLAINE         PTCLDY    55  37  50 N9        30.11S
EDEN PRAIRIE   CLEAR     58  31  35 N6        30.10R
SOUTH ST PAUL  CLEAR     57  32  39 CALM      30.10S
LAKE ELMO      FAIR      54  34  47 N5        30.11S
$$
MNZ001>005-007-008-013>017-022>024-027-028-020300-
   Northwest Minnesota

CITY           SKY/WX    TMP DP  RH WIND       PRES   REMARKS
BEMIDJI        CLEAR     52  28  38 N3        30.13F
HALLOCK        CLEAR     59  21  23 CALM      30.12S
ROSEAU         CLEAR     54  28  37 E5        30.14F
WARROAD        CLEAR     48  32  53 SE5       30.15S
THIEF RVR FALL CLEAR     57  21  24 NE5       30.15S
CROOKSTON      CLEAR     57  28  33 NE6       30.14S
FOSSTON        CLEAR     50  27  40 CALM      30.14S
DETROIT LAKES  CLEAR     55  30  38 N3        30.14S
MOORHEAD       CLEAR     59  28  31 NE3       30.14S
PARK RAPIDS    CLEAR     56  29  35 SE5       30.12S
MAHNOMEN       FAIR      54  29  38 E5        30.13S
$$
MNZ006-009>011-018-025>026-020300-
   North Central Minnesota

CITY           SKY/WX    TMP DP  RH WIND       PRES   REMARKS
BAUDETTE       CLEAR     50  27  40 NW6       30.14S
FLAG ISLAND    CLEAR     48  34  57 CALM      30.13S
INTL FALLS     CLEAR     46  30  53 CALM      30.13F
WASKISH        CLEAR     50  39  66 CALM      30.14S
BIG FORK       CLEAR     52  30  43 N3        30.13S
LONGVILLE      CLEAR     48  34  57 CALM      30.13S
GRAND RAPIDS   CLEAR     48  28  46 CALM      30.14S
CRANE LAKE     CLEAR     43  36  75 CALM      30.15S
ORR            CLEAR     48  30  49 CALM      30.11S
COOK           CLEAR     48  30  49 CALM      30.14R
WALKER         FAIR      52  30  43 CALM      30.13S
$$
MNZ012-019>021-037-020300-
   Northeast Minnesota

CITY           SKY/WX    TMP DP  RH WIND       PRES   REMARKS
DULUTH         PTCLDY    44  30  57 SE3       30.15F
ELY            CLEAR     48  30  49 S5        30.14S
HIBBING        CLEAR     48  32  53 SE6       30.13R
EVELETH        CLEAR     50  32  50 SE5       30.16R
DULUTH HARBOR  CLEAR     39  36  87 CALM      30.18S
TWO HARBORS    CLEAR     46  36  66 N5        30.15S
SILVER BAY     CLEAR     39  32  75 CALM      30.16S
GRAND MARAIS     N/A     38  33  82 CALM      30.17S
G MARAIS ARPRT CLEAR     41  27  56 CALM      30.17S
$$
MNZ029>031-032-039>041-046>048-054>057-064-020300-
   West Central Minnesota

CITY           SKY/WX    TMP DP  RH WIND       PRES   REMARKS
FERGUS FALLS   CLEAR     57  30  35 NW5       30.11R
WHEATON        CLEAR     57  32  38 CALM      30.15F
MORRIS         CLEAR     55  30  38 N6        30.13S
ALEXANDRIA     CLEAR     54  30  40 NE3       30.14S
ELBOW LAKE     FAIR      55  32  40 CALM      30.13F
WADENA         CLEAR     54  30  40 E5        30.12F
GLENWOOD       CLEAR     54  27  35 CALM      30.14S
APPLETON       CLEAR     52  30  43 N5        30.13S
BENSON         CLEAR     52  27  37 CALM      30.14R
ORTONVILLE     CLEAR     55  34  44 NE5       30.14S
MADISON        CLEAR     52  34  50 N6        30.14R
WILLMAR        FAIR      54  32  43 NE3       30.15S
$$
MNZ033>034-036-042>043-049>051-058-059-020300-
   Central Minnesota

CITY           SKY/WX    TMP DP  RH WIND       PRES   REMARKS
ST CLOUD       CLEAR     50  32  50 CALM      30.13R
SAUK CENTRE    FAIR      50  33  52 CALM      30.14S
PAYNESVILLE    PTCLDY    53  31  42 CALM      30.14S
AITKIN         CLEAR     54  28  37 SE5       30.12S
PINE RIVER     CLEAR     50  36  57 CALM      30.16S
BRAINERD       CLEAR     51  31  46 SE3       30.13S
STAPLES        CLEAR     55  27  33 CALM      30.13S
LONG PRAIRIE   FAIR      52  32  46 CALM      30.14S
LITTLE FALLS   CLEAR     48  32  53 CALM      30.14S
LITCHFIELD     CLEAR     55  36  47 CALM      30.14R
BUFFALO        CLEAR     55  33  44 N3        30.13S
MAPLE LAKE     CLEAR     52  37  56 N3        30.14S
HUTCHINSON     CLEAR     50  36  59 NW5       30.14S
$$
MNZ037-044-045-052-053-020300-
   East Central Minnesota

CITY           SKY/WX    TMP DP  RH WIND       PRES   REMARKS
PRINCETON      CLEAR     54  34  47 N3        30.14R
MORA           CLEAR     50  32  50 CALM      30.16S
CAMBRIDGE      CLEAR     57  37  47 N3        30.12R
RUSH CITY      MOCLDY    52  37  56 N5        30.14R
MOOSE LAKE     CLEAR     46  34  61 NE3       30.13S
HINCKLEY       FAIR      50  34  53 CALM      30.14S
CLOQUET        CLEAR     43  30  61 CALM      30.16R
MCGREGOR       CLEAR     48  32  53 SE5       30.14S
$$
MNZ071>073-080-081-089-090-097-098-020300-
   Southwest Minnesota

CITY           SKY/WX    TMP DP  RH WIND       PRES   REMARKS
MONTEVIDEO     CLEAR     52  28  40 CALM      30.15S
GRANITE FALLS  CLEAR     53  33  47 NE5       30.15S
CANBY          CLEAR     57  34  40 CALM      30.15R
MARSHALL       CLEAR     54  32  43 N5        30.14R
REDWOOD FALLS  CLEAR     56  31  38 VRB3      30.13R
OLIVIA         CLEAR     54  32  43 N6        30.13R
PIPESTONE      CLEAR     52  36  54 VRB3      30.14R
WINDOM         CLEAR     48  43  81 CALM      30.13R
WORTHINGTON    CLEAR     50  42  74 N3        30.13S
JACKSON        CLEAR     48  37  66 VRB5      30.13R
TRACY          CLEAR     49  36  60 NE6       30.14R
SLAYTON        CLEAR     50  37  60 N3        30.14R
$$
MNZ065>067-074>077-082>085-091>093-020300-
   South Central Minnesota

CITY           SKY/WX    TMP DP  RH WIND       PRES   REMARKS
MANKATO        CLOUDY    54  36  50 N7        30.10S
NEW ULM        CLEAR     54  36  50 N5        30.12S
ST JAMES       CLEAR     45  37  76 NW7       30.13S
FAIRMONT       CLOUDY    54  37  54 N9        30.10S
GLENCOE        MOCLDY    55  41  58 NW3       30.12R
FARIBAULT      CLOUDY    57  37  47 N3        30.10S
OWATONNA       CLOUDY    55  37  50 N3        30.09S
WASECA         CLOUDY    54  39  58 N7        30.10S
ALBERT LEA     CLOUDY    52  43  71 SE6       30.10R
$$
MNZ078>079-086>088-094>096-020300-
   Southeast Minnesota

CITY           SKY/WX    TMP DP  RH WIND       PRES   REMARKS
ROCHESTER      CLOUDY    49  43  80 W3        30.09S
RED WING       PTCLDY    54  37  54 N5        30.08S
STANTON        MOCLDY    55  37  51 N6        30.08S
DODGE CENTER   CLOUDY    50  43  76 W5        30.09F
WINONA         MOCLDY    52  43  71 CALM      30.08S
AUSTIN         CLOUDY    48  43  81 CALM      30.09S
PRESTON        CLOUDY    46  41  82 CALM      30.08F
$$
ABBREVIATIONS USED IN REMARKS
   TC - TEMPERATURES IN CELSIUS
  WCI - WIND CHILL INDEX
   HX - HEAT INDEX
  VSB - VISIBILITY
$$




USA.gov is the U.S. government's official web portal to all federal, state and local government web resources and services.